Location: Saint Louis
(38.6272°N, 90.1978°W)
Time: 20:06:17
(UTC-05:00)

ISS - Pass Details

Date: 05 August 2013
Orbit: 402 x 404 km, 51.6° (Epoch: 29 May)

Event Time Altitude Azimuth Distance (km) Brightness Sun altitude
Rises 22:26:20 0° 262° (W) 2,367 1.0 -23.2°
Reaches altitude 10° 22:28:41 10° 277° (W) 1,510 0.2 -23.5°
Maximum altitude 22:31:30 24° 333° (NNW) 940 -0.8 -23.8°
Drops below altitude 10° 22:34:21 10° 29° (NNE) 1,526 -0.2 -24.2°
Enters shadow 22:35:43 - 39° (NE) 2,013 0.3 -24.4°
